Year,Month,Day,Hour,Minute,Value (Times are PST for windgust in km/hr)
2017,05,23,00,00,3.20
2017,05,23,00,01,3.20
2017,05,23,00,02,6.40
2017,05,23,00,03,4.80
2017,05,23,00,04,3.20
2017,05,23,00,05,4.80
2017,05,23,00,06,6.40
2017,05,23,00,07,4.80
2017,05,23,00,08,3.20
2017,05,23,00,09,8.10
2017,05,23,00,10,8.10
2017,05,23,00,11,6.40
2017,05,23,00,12,4.80
2017,05,23,00,13,4.80
2017,05,23,00,14,4.80
2017,05,23,00,15,1.60
2017,05,23,00,16,6.40
2017,05,23,00,17,1.60
2017,05,23,00,18,3.20
2017,05,23,00,19,1.60
2017,05,23,00,20,4.80
2017,05,23,00,21,3.20
2017,05,23,00,22,3.20
2017,05,23,00,23,4.80
2017,05,23,00,24,3.20
2017,05,23,00,25,1.60
2017,05,23,00,26,4.80
2017,05,23,00,27,1.60
2017,05,23,00,28,3.20
2017,05,23,00,29,4.80
2017,05,23,00,30,4.80
2017,05,23,00,31,4.80
2017,05,23,00,32,4.80
2017,05,23,00,33,4.80
2017,05,23,00,34,4.80
2017,05,23,00,35,3.20
2017,05,23,00,36,3.20
2017,05,23,00,37,3.20
2017,05,23,00,38,4.80
2017,05,23,00,39,4.80
2017,05,23,00,40,3.20
2017,05,23,00,41,3.20
2017,05,23,00,42,3.20
2017,05,23,00,43,3.20
2017,05,23,00,44,4.80
2017,05,23,00,45,4.80
2017,05,23,00,46,4.80
2017,05,23,00,47,4.80
2017,05,23,00,48,4.80
2017,05,23,00,49,4.80
2017,05,23,00,50,4.80
2017,05,23,00,51,4.80
2017,05,23,00,52,4.80
2017,05,23,00,53,4.80
2017,05,23,00,54,8.10
2017,05,23,00,55,4.80
2017,05,23,00,56,4.80
2017,05,23,00,57,3.20
2017,05,23,00,58,4.80
2017,05,23,00,59,3.20
2017,05,23,01,00,3.20
2017,05,23,01,01,3.20
2017,05,23,01,02,3.20
2017,05,23,01,03,1.60
2017,05,23,01,04,3.20
2017,05,23,01,05,3.20
2017,05,23,01,06,3.20
2017,05,23,01,07,3.20
2017,05,23,01,08,1.60
2017,05,23,01,09,1.60
2017,05,23,01,10,1.60
2017,05,23,01,15,3.20
2017,05,23,01,16,3.20
2017,05,23,01,17,3.20
2017,05,23,01,18,3.20
2017,05,23,01,19,3.20
2017,05,23,01,20,1.60
2017,05,23,01,21,3.20
2017,05,23,01,22,1.60
2017,05,23,01,23,3.20
2017,05,23,01,24,3.20
2017,05,23,01,25,1.60
2017,05,23,01,26,1.60
2017,05,23,01,27,1.60
2017,05,23,01,28,3.20
2017,05,23,01,29,1.60
2017,05,23,01,30,1.60
2017,05,23,01,31,1.60
2017,05,23,01,59,1.60
2017,05,23,02,00,1.60
2017,05,23,02,01,1.60
2017,05,23,02,02,1.60
2017,05,23,02,03,4.80
2017,05,23,02,04,3.20
2017,05,23,02,05,3.20
2017,05,23,02,06,3.20
2017,05,23,02,07,3.20
2017,05,23,02,08,1.60
2017,05,23,02,09,1.60
2017,05,23,02,10,1.60
2017,05,23,02,11,1.60
2017,05,23,02,12,1.60
2017,05,23,02,13,3.20
2017,05,23,02,14,1.60
2017,05,23,02,15,1.60
2017,05,23,02,16,1.60
2017,05,23,02,18,1.60
2017,05,23,02,19,1.60
2017,05,23,02,22,1.60
2017,05,23,02,23,3.20
2017,05,23,02,24,1.60
2017,05,23,02,25,3.20
2017,05,23,02,26,1.60
2017,05,23,02,27,1.60
2017,05,23,02,29,1.60
2017,05,23,02,30,1.60
2017,05,23,02,31,1.60
2017,05,23,02,32,3.20
2017,05,23,02,33,1.60
2017,05,23,02,34,4.80
2017,05,23,02,35,3.20
2017,05,23,02,36,3.20
2017,05,23,02,37,1.60
2017,05,23,02,38,3.20
2017,05,23,02,39,3.20
2017,05,23,02,40,3.20
2017,05,23,02,41,4.80
2017,05,23,02,42,4.80
2017,05,23,02,43,4.80
2017,05,23,02,44,4.80
2017,05,23,02,45,4.80
2017,05,23,02,46,4.80
2017,05,23,02,47,3.20
2017,05,23,02,48,3.20
2017,05,23,02,49,4.80
2017,05,23,02,50,4.80
2017,05,23,02,51,4.80
2017,05,23,02,52,4.80
2017,05,23,02,53,3.20
2017,05,23,02,54,4.80
2017,05,23,02,55,4.80
2017,05,23,02,56,4.80
2017,05,23,02,57,3.20
2017,05,23,02,58,4.80
2017,05,23,02,59,3.20
2017,05,23,03,00,3.20
2017,05,23,03,01,4.80
2017,05,23,03,02,3.20
2017,05,23,03,03,3.20
2017,05,23,03,04,3.20
2017,05,23,03,05,4.80
2017,05,23,03,06,6.40
2017,05,23,03,07,3.20
2017,05,23,03,08,1.60
2017,05,23,03,09,3.20
2017,05,23,03,10,3.20
2017,05,23,03,11,3.20
2017,05,23,03,12,1.60
2017,05,23,03,13,3.20
2017,05,23,03,14,6.40
2017,05,23,03,15,3.20
2017,05,23,03,16,1.60
2017,05,23,04,30,4.80
2017,05,23,04,31,6.40
2017,05,23,04,32,14.50
2017,05,23,04,33,16.10
2017,05,23,04,34,9.60
2017,05,23,04,35,14.50
2017,05,23,04,36,8.10
2017,05,23,04,37,8.10
2017,05,23,04,38,14.50
2017,05,23,04,39,9.60
2017,05,23,04,40,11.30
2017,05,23,04,41,17.70
2017,05,23,04,42,11.30
2017,05,23,04,43,11.30
2017,05,23,04,44,11.30
2017,05,23,04,45,9.60
2017,05,23,04,46,14.50
2017,05,23,04,47,6.40
2017,05,23,04,48,8.10
2017,05,23,04,49,9.60
2017,05,23,04,50,9.60
2017,05,23,04,51,6.40
2017,05,23,04,52,8.10
2017,05,23,04,53,3.20
2017,05,23,04,54,3.20
2017,05,23,04,55,4.80
2017,05,23,04,56,4.80
2017,05,23,04,57,4.80
2017,05,23,04,58,3.20
2017,05,23,04,59,3.20
2017,05,23,05,00,3.20
2017,05,23,05,01,3.20
2017,05,23,05,02,4.80
2017,05,23,05,03,6.40
2017,05,23,05,04,4.80
2017,05,23,05,05,4.80
2017,05,23,05,06,4.80
2017,05,23,05,07,3.20
2017,05,23,05,11,1.60
2017,05,23,05,12,3.20
2017,05,23,05,13,1.60
2017,05,23,05,14,1.60
2017,05,23,05,23,1.60
2017,05,23,05,24,1.60
2017,05,23,05,25,3.20
2017,05,23,05,26,3.20
2017,05,23,05,27,1.60
2017,05,23,05,28,3.20
2017,05,23,05,29,4.80
2017,05,23,05,30,3.20
2017,05,23,05,31,4.80
2017,05,23,05,32,4.80
2017,05,23,05,33,3.20
2017,05,23,05,34,3.20
2017,05,23,05,35,3.20
2017,05,23,05,36,3.20
2017,05,23,05,38,1.60
2017,05,23,05,39,1.60
2017,05,23,05,41,1.60
2017,05,23,05,43,1.60
2017,05,23,05,44,1.60
2017,05,23,05,45,3.20
2017,05,23,05,46,3.20
2017,05,23,05,47,3.20
2017,05,23,05,48,1.60
2017,05,23,05,49,1.60
2017,05,23,05,50,1.60
2017,05,23,05,51,1.60
2017,05,23,05,53,3.20
2017,05,23,05,54,3.20
2017,05,23,05,55,3.20
2017,05,23,05,56,3.20
2017,05,23,05,57,1.60
2017,05,23,05,58,1.60
2017,05,23,05,59,1.60
2017,05,23,06,00,3.20
2017,05,23,06,01,3.20
2017,05,23,06,02,3.20
2017,05,23,06,03,1.60
2017,05,23,06,04,3.20
2017,05,23,06,05,4.80
2017,05,23,06,06,3.20
2017,05,23,06,07,4.80
2017,05,23,06,08,3.20
2017,05,23,06,09,6.40
2017,05,23,06,10,8.10
2017,05,23,06,11,9.60
2017,05,23,06,12,16.10
2017,05,23,06,13,9.60
2017,05,23,06,14,8.10
2017,05,23,06,15,6.40
2017,05,23,06,16,8.10
2017,05,23,06,17,6.40
2017,05,23,06,18,4.80
2017,05,23,06,19,1.60
2017,05,23,06,20,3.20
2017,05,23,06,21,1.60
2017,05,23,06,22,4.80
2017,05,23,06,23,9.60
2017,05,23,06,24,3.20
2017,05,23,06,25,6.40
2017,05,23,06,26,4.80
2017,05,23,06,27,4.80
2017,05,23,06,28,3.20
2017,05,23,06,29,4.80
2017,05,23,06,30,4.80
2017,05,23,06,31,3.20
2017,05,23,06,32,1.60
2017,05,23,06,33,3.20
2017,05,23,06,34,3.20
2017,05,23,06,35,4.80
2017,05,23,06,36,1.60
2017,05,23,06,37,4.80
2017,05,23,06,38,3.20
2017,05,23,06,39,3.20
2017,05,23,06,40,3.20
2017,05,23,06,41,3.20
2017,05,23,06,42,1.60
2017,05,23,06,43,3.20
2017,05,23,06,44,1.60
2017,05,23,06,45,3.20
2017,05,23,06,46,3.20
2017,05,23,06,47,3.20
2017,05,23,06,48,3.20
2017,05,23,06,49,3.20
2017,05,23,06,50,3.20
2017,05,23,06,51,3.20
2017,05,23,06,52,3.20
2017,05,23,06,53,3.20
2017,05,23,06,54,4.80
2017,05,23,06,55,3.20
2017,05,23,06,56,4.80
2017,05,23,06,57,3.20
2017,05,23,06,58,3.20
2017,05,23,06,59,3.20
2017,05,23,07,00,3.20
2017,05,23,07,01,4.80
2017,05,23,07,02,4.80
2017,05,23,07,03,3.20
2017,05,23,07,04,3.20
2017,05,23,07,05,3.20
2017,05,23,07,06,3.20
2017,05,23,07,07,3.20
2017,05,23,07,08,3.20
2017,05,23,07,11,4.80
2017,05,23,07,12,6.40
2017,05,23,07,13,4.80
2017,05,23,07,14,3.20
2017,05,23,07,15,4.80
2017,05,23,07,16,4.80
2017,05,23,07,17,4.80
2017,05,23,07,18,4.80
2017,05,23,07,19,6.40
2017,05,23,07,20,6.40
2017,05,23,07,21,4.80
2017,05,23,07,22,9.60
2017,05,23,07,23,6.40
2017,05,23,07,24,6.40
2017,05,23,07,25,4.80
2017,05,23,07,26,4.80
2017,05,23,07,27,4.80
2017,05,23,07,28,6.40
2017,05,23,07,29,4.80
2017,05,23,07,30,6.40
2017,05,23,07,31,8.10
2017,05,23,07,32,8.10
2017,05,23,07,33,8.10
2017,05,23,07,34,4.80
2017,05,23,07,35,8.10
2017,05,23,07,36,6.40
2017,05,23,07,37,6.40
2017,05,23,07,38,6.40
2017,05,23,07,39,6.40
2017,05,23,07,40,4.80
2017,05,23,07,41,6.40
2017,05,23,07,42,8.10
2017,05,23,07,43,8.10
2017,05,23,07,44,6.40
2017,05,23,07,45,8.10
2017,05,23,07,46,8.10
2017,05,23,07,47,4.80
2017,05,23,07,48,8.10
2017,05,23,07,49,8.10
2017,05,23,07,50,6.40
2017,05,23,07,51,8.10
2017,05,23,07,52,4.80
2017,05,23,07,53,4.80
2017,05,23,07,54,9.60
2017,05,23,07,55,9.60
2017,05,23,07,56,9.60
2017,05,23,07,57,11.30
2017,05,23,07,58,9.60
2017,05,23,07,59,11.30
2017,05,23,08,00,8.10
2017,05,23,08,01,6.40
2017,05,23,08,02,9.60
2017,05,23,08,03,20.90
2017,05,23,08,04,20.90
2017,05,23,08,05,11.30
2017,05,23,08,06,9.60
2017,05,23,08,07,9.60
2017,05,23,08,08,12.90
2017,05,23,08,09,16.10
2017,05,23,08,10,12.90
2017,05,23,08,11,14.50
2017,05,23,08,12,12.90
2017,05,23,08,13,9.60
2017,05,23,08,14,11.30
2017,05,23,08,15,6.40
2017,05,23,08,16,16.10
2017,05,23,08,17,12.90
2017,05,23,08,18,16.10
2017,05,23,08,19,19.30
2017,05,23,08,20,17.70
2017,05,23,08,21,16.10
2017,05,23,08,22,6.40
2017,05,23,08,23,14.50
2017,05,23,08,24,8.10
2017,05,23,08,25,6.40
2017,05,23,08,26,8.10
2017,05,23,08,27,8.10
2017,05,23,08,28,9.60
2017,05,23,08,29,9.60
2017,05,23,08,30,6.40
2017,05,23,08,31,12.90
2017,05,23,08,32,11.30
2017,05,23,08,33,6.40
2017,05,23,08,34,12.90
2017,05,23,08,35,14.50
2017,05,23,08,36,14.50
2017,05,23,08,37,12.90
2017,05,23,08,38,16.10
2017,05,23,08,39,20.90
2017,05,23,08,40,16.10
2017,05,23,08,41,9.60
2017,05,23,08,42,17.70
2017,05,23,08,43,14.50
2017,05,23,08,44,11.30
2017,05,23,08,45,14.50
2017,05,23,08,46,11.30
2017,05,23,08,47,14.50
2017,05,23,08,48,11.30
2017,05,23,08,49,16.10
2017,05,23,08,50,14.50
2017,05,23,08,51,9.60
2017,05,23,08,52,17.70
2017,05,23,08,53,19.30
2017,05,23,08,54,22.50
2017,05,23,08,55,17.70
2017,05,23,08,56,14.50
2017,05,23,08,57,16.10
2017,05,23,08,58,17.70
2017,05,23,08,59,17.70
2017,05,23,09,00,11.30
2017,05,23,09,01,16.10
2017,05,23,09,02,14.50
2017,05,23,09,03,17.70
2017,05,23,09,04,11.30
2017,05,23,09,05,16.10
2017,05,23,09,06,17.70
2017,05,23,09,07,16.10
2017,05,23,09,08,17.70
2017,05,23,09,09,11.30
2017,05,23,09,10,16.10
2017,05,23,09,11,17.70
2017,05,23,09,12,20.90
2017,05,23,09,13,25.70
2017,05,23,09,14,25.70
2017,05,23,09,15,20.90
2017,05,23,09,16,19.30
2017,05,23,09,17,19.30
2017,05,23,09,18,27.40
2017,05,23,09,19,22.50
2017,05,23,09,20,25.70
2017,05,23,09,21,20.90
2017,05,23,09,22,12.90
2017,05,23,09,23,19.30
2017,05,23,09,24,24.20
2017,05,23,09,25,16.10
2017,05,23,09,26,19.30
2017,05,23,09,27,20.90
2017,05,23,09,28,16.10
2017,05,23,09,29,16.10
2017,05,23,09,30,20.90
2017,05,23,09,31,19.30
2017,05,23,09,32,24.20
2017,05,23,09,33,20.90
2017,05,23,09,34,19.30
2017,05,23,09,35,17.70
2017,05,23,09,36,24.20
2017,05,23,09,37,17.70
2017,05,23,09,38,17.70
2017,05,23,09,39,19.30
2017,05,23,09,40,16.10
2017,05,23,09,41,17.70
2017,05,23,09,42,16.10
2017,05,23,09,43,16.10
2017,05,23,09,44,16.10
2017,05,23,09,45,19.30
2017,05,23,09,46,12.90
2017,05,23,09,47,12.90
2017,05,23,09,48,9.60
2017,05,23,09,49,16.10
2017,05,23,09,50,16.10
2017,05,23,09,51,11.30
2017,05,23,09,52,14.50
2017,05,23,09,53,16.10
2017,05,23,09,54,16.10
2017,05,23,09,55,16.10
2017,05,23,09,56,17.70
2017,05,23,09,57,16.10
2017,05,23,09,58,16.10
2017,05,23,09,59,12.90
2017,05,23,10,00,14.50
2017,05,23,10,01,16.10
2017,05,23,10,02,11.30
2017,05,23,10,03,9.60
2017,05,23,10,04,11.30
2017,05,23,10,05,16.10
2017,05,23,10,06,16.10
2017,05,23,10,07,27.40
2017,05,23,10,08,24.20
2017,05,23,10,09,25.70
2017,05,23,10,10,20.90
2017,05,23,10,11,27.40
2017,05,23,10,12,27.40
2017,05,23,10,13,25.70
2017,05,23,10,14,19.30
2017,05,23,10,15,19.30
2017,05,23,10,16,17.70
2017,05,23,10,17,22.50
2017,05,23,10,18,22.50
2017,05,23,10,19,24.20
2017,05,23,10,20,17.70
2017,05,23,10,21,25.70
2017,05,23,10,22,22.50
2017,05,23,10,23,20.90
2017,05,23,10,24,29.00
2017,05,23,10,25,19.30
2017,05,23,10,26,29.00
2017,05,23,10,27,25.70
2017,05,23,10,28,16.10
2017,05,23,10,29,17.70
2017,05,23,10,30,16.10
2017,05,23,10,31,17.70
2017,05,23,10,32,17.70
2017,05,23,10,33,19.30
2017,05,23,10,34,17.70
2017,05,23,10,35,19.30
2017,05,23,10,36,11.30
2017,05,23,10,37,25.70
2017,05,23,10,38,22.50
2017,05,23,10,39,30.60
2017,05,23,10,40,30.60
2017,05,23,10,41,25.70
2017,05,23,10,42,33.80
2017,05,23,10,43,38.60
2017,05,23,10,44,32.20
2017,05,23,10,45,24.20
2017,05,23,10,46,29.00
2017,05,23,10,47,20.90
2017,05,23,10,48,24.20
2017,05,23,10,49,35.40
2017,05,23,10,50,29.00
2017,05,23,10,51,27.40
2017,05,23,10,52,24.20
2017,05,23,10,53,27.40
2017,05,23,10,54,29.00
2017,05,23,10,55,27.40
2017,05,23,10,56,32.20
2017,05,23,10,57,38.60
2017,05,23,10,58,32.20
2017,05,23,10,59,29.00
2017,05,23,11,00,35.40
2017,05,23,11,01,30.60
2017,05,23,11,02,27.40
2017,05,23,11,03,27.40
2017,05,23,11,04,24.20
2017,05,23,11,05,27.40
2017,05,23,11,06,24.20
2017,05,23,11,07,25.70
2017,05,23,11,08,37.00
2017,05,23,11,09,20.90
2017,05,23,11,10,29.00
2017,05,23,11,11,25.70
2017,05,23,11,12,25.70
2017,05,23,11,13,29.00
2017,05,23,11,14,33.80
2017,05,23,11,15,19.30
2017,05,23,11,16,35.40
2017,05,23,11,17,25.70
2017,05,23,11,18,24.20
2017,05,23,11,19,27.40
2017,05,23,11,20,24.20
2017,05,23,11,21,22.50
2017,05,23,11,22,25.70
2017,05,23,11,23,29.00
2017,05,23,11,24,27.40
2017,05,23,11,25,33.80
2017,05,23,11,26,38.60
2017,05,23,11,27,29.00
2017,05,23,11,28,37.00
2017,05,23,11,29,38.60
2017,05,23,11,30,30.60
2017,05,23,11,31,33.80
2017,05,23,11,32,29.00
2017,05,23,11,33,30.60
2017,05,23,11,34,35.40
2017,05,23,11,35,32.20
2017,05,23,11,36,29.00
2017,05,23,11,37,37.00
2017,05,23,11,38,25.70
2017,05,23,11,39,32.20
2017,05,23,11,40,41.80
2017,05,23,11,41,32.20
2017,05,23,11,42,30.60
2017,05,23,11,43,30.60
2017,05,23,11,44,30.60
2017,05,23,11,45,32.20
2017,05,23,11,46,27.40
2017,05,23,11,47,32.20
2017,05,23,11,48,33.80
2017,05,23,11,49,37.00
2017,05,23,11,50,37.00
2017,05,23,11,51,32.20
2017,05,23,11,52,43.50
2017,05,23,11,53,27.40
2017,05,23,11,54,35.40
2017,05,23,11,55,32.20
2017,05,23,11,56,32.20
2017,05,23,11,57,33.80
2017,05,23,11,58,38.60
2017,05,23,11,59,32.20
2017,05,23,12,00,33.80
2017,05,23,12,01,38.60
2017,05,23,12,02,35.40
2017,05,23,12,03,32.20
2017,05,23,12,04,29.00
2017,05,23,12,05,30.60
2017,05,23,12,06,27.40
2017,05,23,12,07,27.40
2017,05,23,12,08,35.40
2017,05,23,12,09,49.90
2017,05,23,12,10,40.20
2017,05,23,12,11,45.10
2017,05,23,12,12,40.20
2017,05,23,12,13,35.40
2017,05,23,12,14,48.30
2017,05,23,12,15,37.00
2017,05,23,12,16,43.50
2017,05,23,12,17,38.60
2017,05,23,12,18,27.40
2017,05,23,12,19,35.40
2017,05,23,12,20,37.00
2017,05,23,12,21,37.00
2017,05,23,12,22,37.00
2017,05,23,12,23,35.40
2017,05,23,12,24,35.40
2017,05,23,12,25,33.80
2017,05,23,12,26,30.60
2017,05,23,12,27,38.60
2017,05,23,12,28,38.60
2017,05,23,12,29,25.70
2017,05,23,12,30,30.60
2017,05,23,12,31,29.00
2017,05,23,12,32,45.10
2017,05,23,12,33,30.60
2017,05,23,12,34,30.60
2017,05,23,12,35,35.40
2017,05,23,12,36,33.80
2017,05,23,12,37,27.40
2017,05,23,12,38,22.50
2017,05,23,12,39,41.80
2017,05,23,12,40,37.00
2017,05,23,12,41,35.40
2017,05,23,12,42,43.50
2017,05,23,12,43,32.20
2017,05,23,12,44,30.60
2017,05,23,12,45,38.60
2017,05,23,12,46,35.40
2017,05,23,12,47,33.80
2017,05,23,12,48,35.40
2017,05,23,12,49,38.60
2017,05,23,12,50,29.00
2017,05,23,12,51,35.40
2017,05,23,12,52,30.60
2017,05,23,12,53,38.60
2017,05,23,12,54,29.00
2017,05,23,12,55,29.00
2017,05,23,12,56,37.00
2017,05,23,12,57,30.60
2017,05,23,12,58,33.80
2017,05,23,12,59,30.60
2017,05,23,13,00,24.20
2017,05,23,13,01,27.40
2017,05,23,13,02,22.50
2017,05,23,13,03,24.20
2017,05,23,13,04,27.40
2017,05,23,13,05,24.20
2017,05,23,13,06,29.00
2017,05,23,13,07,25.70
2017,05,23,13,08,37.00
2017,05,23,13,09,27.40
2017,05,23,13,10,29.00
2017,05,23,13,11,27.40
2017,05,23,13,12,29.00
2017,05,23,13,13,32.20
2017,05,23,13,14,33.80
2017,05,23,13,15,32.20
2017,05,23,13,16,37.00
2017,05,23,13,17,33.80
2017,05,23,13,18,33.80
2017,05,23,13,19,35.40
2017,05,23,13,20,20.90
2017,05,23,13,21,35.40
2017,05,23,13,22,41.80
2017,05,23,13,23,37.00
2017,05,23,13,24,32.20
2017,05,23,13,25,40.20
2017,05,23,13,26,25.70
2017,05,23,13,27,32.20
2017,05,23,13,28,27.40
2017,05,23,13,29,43.50
2017,05,23,13,30,48.30
2017,05,23,13,31,38.60
2017,05,23,13,32,38.60
2017,05,23,13,33,35.40
2017,05,23,13,34,33.80
2017,05,23,13,35,29.00
2017,05,23,13,36,32.20
2017,05,23,13,37,37.00
2017,05,23,13,38,27.40
2017,05,23,13,39,33.80
2017,05,23,13,40,24.20
2017,05,23,13,41,25.70
2017,05,23,13,42,37.00
2017,05,23,13,43,38.60
2017,05,23,13,44,41.80
2017,05,23,13,45,38.60
2017,05,23,13,46,27.40
2017,05,23,13,47,40.20
2017,05,23,13,48,48.30
2017,05,23,13,49,30.60
2017,05,23,13,50,33.80
2017,05,23,13,51,37.00
2017,05,23,13,52,40.20
2017,05,23,13,53,48.30
2017,05,23,13,54,46.70
2017,05,23,13,55,48.30
2017,05,23,13,56,32.20
2017,05,23,13,57,43.50
2017,05,23,13,58,40.20
2017,05,23,13,59,38.60
2017,05,23,14,00,32.20
2017,05,23,14,01,37.00
2017,05,23,14,02,33.80
2017,05,23,14,03,38.60
2017,05,23,14,04,45.10
2017,05,23,14,05,35.40
2017,05,23,14,06,29.00
2017,05,23,14,07,32.20
2017,05,23,14,08,35.40
2017,05,23,14,09,27.40
2017,05,23,14,10,35.40
2017,05,23,14,11,41.80
2017,05,23,14,12,37.00
2017,05,23,14,13,45.10
2017,05,23,14,14,33.80
2017,05,23,14,15,38.60
2017,05,23,14,16,46.70
2017,05,23,14,17,46.70
2017,05,23,14,18,33.80
2017,05,23,14,19,41.80
2017,05,23,14,20,45.10
2017,05,23,14,21,46.70
2017,05,23,14,22,38.60
2017,05,23,14,23,48.30
2017,05,23,14,24,33.80
2017,05,23,14,25,49.90
2017,05,23,14,26,48.30
2017,05,23,14,27,37.00
2017,05,23,14,28,43.50
2017,05,23,14,29,40.20
2017,05,23,14,30,37.00
2017,05,23,14,31,33.80
2017,05,23,14,32,37.00
2017,05,23,14,33,38.60
2017,05,23,14,34,35.40
2017,05,23,14,35,32.20
2017,05,23,14,36,33.80
2017,05,23,14,37,33.80
2017,05,23,14,38,24.20
2017,05,23,14,39,32.20
2017,05,23,14,40,25.70
2017,05,23,14,41,25.70
2017,05,23,14,42,45.10
2017,05,23,14,43,30.60
2017,05,23,14,44,37.00
2017,05,23,14,45,27.40
2017,05,23,14,46,25.70
2017,05,23,14,47,32.20
2017,05,23,14,48,30.60
2017,05,23,14,49,19.30
2017,05,23,14,50,37.00
2017,05,23,14,51,32.20
2017,05,23,14,52,29.00
2017,05,23,14,53,35.40
2017,05,23,14,54,33.80
2017,05,23,14,55,24.20
2017,05,23,14,56,25.70
2017,05,23,14,57,29.00
2017,05,23,14,58,30.60
2017,05,23,14,59,30.60
2017,05,23,15,00,46.70
2017,05,23,15,01,37.00
2017,05,23,15,02,37.00
2017,05,23,15,03,38.60
2017,05,23,15,04,24.20
2017,05,23,15,05,32.20
2017,05,23,15,06,32.20
2017,05,23,15,07,30.60
2017,05,23,15,08,35.40
2017,05,23,15,09,27.40
2017,05,23,15,10,38.60
2017,05,23,15,11,35.40
2017,05,23,15,12,37.00
2017,05,23,15,13,45.10
2017,05,23,15,14,27.40
2017,05,23,15,15,37.00
2017,05,23,15,16,40.20
2017,05,23,15,17,32.20
2017,05,23,15,18,48.30
2017,05,23,15,19,30.60
2017,05,23,15,20,33.80
2017,05,23,15,21,32.20
2017,05,23,15,22,27.40
2017,05,23,15,23,32.20
2017,05,23,15,24,43.50
2017,05,23,15,25,46.70
2017,05,23,15,26,49.90
2017,05,23,15,27,46.70
2017,05,23,15,28,30.60
2017,05,23,15,29,29.00
2017,05,23,15,30,20.90
2017,05,23,15,31,41.80
2017,05,23,15,32,40.20
2017,05,23,15,33,40.20
2017,05,23,15,34,43.50
2017,05,23,15,35,25.70
2017,05,23,15,36,49.90
2017,05,23,15,37,25.70
2017,05,23,15,38,30.60
2017,05,23,15,39,46.70
2017,05,23,15,40,40.20
2017,05,23,15,41,38.60
2017,05,23,15,42,24.20
2017,05,23,15,43,46.70
2017,05,23,15,44,35.40
2017,05,23,15,45,27.40
2017,05,23,15,46,35.40
2017,05,23,15,47,27.40
2017,05,23,15,48,27.40
2017,05,23,15,49,25.70
2017,05,23,15,50,27.40
2017,05,23,15,51,27.40
2017,05,23,15,52,30.60
2017,05,23,15,53,32.20
2017,05,23,15,54,22.50
2017,05,23,15,55,20.90
2017,05,23,15,56,32.20
2017,05,23,15,57,37.00
2017,05,23,15,58,43.50
2017,05,23,15,59,38.60
2017,05,23,16,00,30.60
2017,05,23,16,01,29.00
2017,05,23,16,02,33.80
2017,05,23,16,03,35.40
2017,05,23,16,04,29.00
2017,05,23,16,05,30.60
2017,05,23,16,06,27.40
2017,05,23,16,07,32.20
2017,05,23,16,08,30.60
2017,05,23,16,09,27.40
2017,05,23,16,10,33.80
2017,05,23,16,11,30.60
2017,05,23,16,12,29.00
2017,05,23,16,13,32.20
2017,05,23,16,14,24.20
2017,05,23,16,15,35.40
2017,05,23,16,16,33.80
2017,05,23,16,17,32.20
2017,05,23,16,18,24.20
2017,05,23,16,19,38.60
2017,05,23,16,20,40.20
2017,05,23,16,21,22.50
2017,05,23,16,22,37.00
2017,05,23,16,23,25.70
2017,05,23,16,24,22.50
2017,05,23,16,25,19.30
2017,05,23,16,26,29.00
2017,05,23,16,27,33.80
2017,05,23,16,28,43.50
2017,05,23,16,29,40.20
2017,05,23,16,30,37.00
2017,05,23,16,31,30.60
2017,05,23,16,32,33.80
2017,05,23,16,33,45.10
2017,05,23,16,34,22.50
2017,05,23,16,35,35.40
2017,05,23,16,36,29.00
2017,05,23,16,37,37.00
2017,05,23,16,38,37.00
2017,05,23,16,39,33.80
2017,05,23,16,40,41.80
2017,05,23,16,41,40.20
2017,05,23,16,42,38.60
2017,05,23,16,43,35.40
2017,05,23,16,44,33.80
2017,05,23,16,45,30.60
2017,05,23,16,46,46.70
2017,05,23,16,47,38.60
2017,05,23,16,48,30.60
2017,05,23,16,49,33.80
2017,05,23,16,50,40.20
2017,05,23,16,51,45.10
2017,05,23,16,52,41.80
2017,05,23,16,53,37.00
2017,05,23,16,54,46.70
2017,05,23,16,55,30.60
2017,05,23,16,56,43.50
2017,05,23,16,57,49.90
2017,05,23,16,58,33.80
2017,05,23,16,59,30.60
2017,05,23,17,00,29.00
2017,05,23,17,01,37.00
2017,05,23,17,02,37.00
2017,05,23,17,03,30.60
2017,05,23,17,04,33.80
2017,05,23,17,05,41.80
2017,05,23,17,06,45.10
2017,05,23,17,07,27.40
2017,05,23,17,08,32.20
2017,05,23,17,09,29.00
2017,05,23,17,10,38.60
2017,05,23,17,11,35.40
2017,05,23,17,12,49.90
2017,05,23,17,13,33.80
2017,05,23,17,14,32.20
2017,05,23,17,15,32.20
2017,05,23,17,16,45.10
2017,05,23,17,17,37.00
2017,05,23,17,18,41.80
2017,05,23,17,19,37.00
2017,05,23,17,20,35.40
2017,05,23,17,21,43.50
2017,05,23,17,22,43.50
2017,05,23,17,23,30.60
2017,05,23,17,24,38.60
2017,05,23,17,25,40.20
2017,05,23,17,26,30.60
2017,05,23,17,27,41.80
2017,05,23,17,28,32.20
2017,05,23,17,29,25.70
2017,05,23,17,30,25.70
2017,05,23,17,31,37.00
2017,05,23,17,32,35.40
2017,05,23,17,33,25.70
2017,05,23,17,34,41.80
2017,05,23,17,35,35.40
2017,05,23,17,36,41.80
2017,05,23,17,37,30.60
2017,05,23,17,38,24.20
2017,05,23,17,39,40.20
2017,05,23,17,40,33.80
2017,05,23,17,41,25.70
2017,05,23,17,42,37.00
2017,05,23,17,43,43.50
2017,05,23,17,44,48.30
2017,05,23,17,45,43.50
2017,05,23,17,46,45.10
2017,05,23,17,47,35.40
2017,05,23,17,48,38.60
2017,05,23,17,49,35.40
2017,05,23,17,50,38.60
2017,05,23,17,51,41.80
2017,05,23,17,52,38.60
2017,05,23,17,53,40.20
2017,05,23,17,54,35.40
2017,05,23,17,55,32.20
2017,05,23,17,56,25.70
2017,05,23,17,57,30.60
2017,05,23,17,58,27.40
2017,05,23,17,59,27.40
2017,05,23,18,00,25.70
2017,05,23,18,01,40.20
2017,05,23,18,02,41.80
2017,05,23,18,03,45.10
2017,05,23,18,04,29.00
2017,05,23,18,05,33.80
2017,05,23,18,06,35.40
2017,05,23,18,07,30.60
2017,05,23,18,08,46.70
2017,05,23,18,09,45.10
2017,05,23,18,10,40.20
2017,05,23,18,11,38.60
2017,05,23,18,12,25.70
2017,05,23,18,13,33.80
2017,05,23,18,14,29.00
2017,05,23,18,15,35.40
2017,05,23,18,16,29.00
2017,05,23,18,17,38.60
2017,05,23,18,18,37.00
2017,05,23,18,19,38.60
2017,05,23,18,20,41.80
2017,05,23,18,21,32.20
2017,05,23,18,22,33.80
2017,05,23,18,23,40.20
2017,05,23,18,24,35.40
2017,05,23,18,25,49.90
2017,05,23,18,26,46.70
2017,05,23,18,27,35.40
2017,05,23,18,28,43.50
2017,05,23,18,29,43.50
2017,05,23,18,30,35.40
2017,05,23,18,31,48.30
2017,05,23,18,32,37.00
2017,05,23,18,33,49.90
2017,05,23,18,34,62.70
2017,05,23,18,35,53.10
2017,05,23,18,36,51.50
2017,05,23,18,37,38.60
2017,05,23,18,38,48.30
2017,05,23,18,39,37.00
2017,05,23,18,40,41.80
2017,05,23,18,41,49.90
2017,05,23,18,42,35.40
2017,05,23,18,43,35.40
2017,05,23,18,44,46.70
2017,05,23,18,45,43.50
2017,05,23,18,46,38.60
2017,05,23,18,47,38.60
2017,05,23,18,48,48.30
2017,05,23,18,49,46.70
2017,05,23,18,50,41.80
2017,05,23,18,51,40.20
2017,05,23,18,52,45.10
2017,05,23,18,53,29.00
2017,05,23,18,54,40.20
2017,05,23,18,55,45.10
2017,05,23,18,56,40.20
2017,05,23,18,57,37.00
2017,05,23,18,58,38.60
2017,05,23,18,59,43.50
2017,05,23,19,00,45.10
2017,05,23,19,01,37.00
2017,05,23,19,02,33.80
2017,05,23,19,03,51.50
2017,05,23,19,04,43.50
2017,05,23,19,05,40.20
2017,05,23,19,06,41.80
2017,05,23,19,07,33.80
2017,05,23,19,08,45.10
2017,05,23,19,09,64.40
2017,05,23,19,10,35.40
2017,05,23,19,11,45.10
2017,05,23,19,12,43.50
2017,05,23,19,13,40.20
2017,05,23,19,14,38.60
2017,05,23,19,15,53.10
2017,05,23,19,16,43.50
2017,05,23,19,17,57.90
2017,05,23,19,18,46.70
2017,05,23,19,19,49.90
2017,05,23,19,20,53.10
2017,05,23,19,21,53.10
2017,05,23,19,22,41.80
2017,05,23,19,23,43.50
2017,05,23,19,24,40.20
2017,05,23,19,25,45.10
2017,05,23,19,26,61.20
2017,05,23,19,27,41.80
2017,05,23,19,28,35.40
2017,05,23,19,29,48.30
2017,05,23,19,30,46.70
2017,05,23,19,31,35.40
2017,05,23,19,32,37.00
2017,05,23,19,33,53.10
2017,05,23,19,34,41.80
2017,05,23,19,35,51.50
2017,05,23,19,36,48.30
2017,05,23,19,37,33.80
2017,05,23,19,38,30.60
2017,05,23,19,39,46.70
2017,05,23,19,40,48.30